Regional Weather Roundup
Issued by NWS Spokane, WA

Home | Current Version | Previous Version | Text Only | Print | Product List | Glossary On
Versions: 1 2 3 4 5 6 7 8 9 10 11 12 13 14 15 16 17 18 19 20 21 22 23 24 25 26 27 28 29 30 31 32 33 34 35 36 37 38 39 40 41 42 43 44 45 46 47 48 49 50
000
NZUS01 KOTX 210210
RWROTX
EASTERN WASHINGTON/NORTHERN IDAHO ROUNDUP
NATIONAL WEATHER SERVICE, SPOKANE WA
700 PM PDT SAT SEP 20 2014

Note: "fair" indicated few or no clouds below 12,000 feet with no
significant weather and/or obstructions to visibility.

...NORTHEAST WASHINGTON AND NORTHERN IDAHO PANHANDLE...

CITY           SKY/WX    TMP DP  RH WIND       PRES   REMARKS
SPOKANE INTL   PTCLDY    75  42  30 N7        30.06F
SPOKANE DOWNTO CLEAR     74  39  28 CALM      30.05F
COEUR D ALENE  CLEAR     73  45  35 N10       30.06S
DEER PARK      CLEAR     72  43  35 N6        30.07F
SANDPOINT      CLEAR     61  50  67 CALM      30.08S

...SOUTHEAST WASHINGTON AND SOUTHERN IDAHO PANHANDLE...

CITY           SKY/WX    TMP DP  RH WIND       PRES   REMARKS
WALLA WALLA    CLEAR     81  53  37 S5        29.96F
PULLMAN/MOSCOW CLEAR     76  35  22 CALM      30.05F
LEWISTON       CLEAR     81  41  24 W6        29.96F
LOWELL           N/A     65  57  75 CALM      29.99R

...COLUMBIA BASIN...

CITY           SKY/WX    TMP DP  RH WIND       PRES   REMARKS
EPHRATA        CLEAR     81  42  25 NE8       29.99F
MOSES LAKE     CLEAR     81  45  28 NE7       29.99F
TRI CITIES     CLEAR     76  57  51 N6        29.92F
HERMISTON      CLEAR     83  50  31 N3        29.93S
PENDLETON      CLEAR     78  45  30 N6        29.97S

...EAST SLOPES CASCADES...

CITY           SKY/WX    TMP DP  RH WIND       PRES   REMARKS
THE DALLES     CLEAR     84  46  26 SE8       29.89F
YAKIMA         CLEAR     80  48  32 CALM      29.99F
ELLENSBURG     CLEAR     77  49  37 S5        30.02
WENATCHEE      CLEAR     81  49  32 NW5       30.00F
OMAK           CLEAR     74  38  27 N9        30.03F

...SOUTHERN BRITISH COLUMBIA...

CITY           SKY/WX    TMP DP  RH WIND       PRES   REMARKS
PENTICTON      CLEAR     66  46  48 N3        30.07F
CASTLEGAR      CLEAR     68  48  49 NW7       30.09R
CRANBROOK      CLEAR     61  43  51 CALM      30.18S

...WESTERN MONTANA...

CITY           SKY/WX    TMP DP  RH WIND       PRES   REMARKS
MISSOULA       CLEAR     72  42  34 N10       30.12S

...NEIGHBORING CITIES...

CITY           SKY/WX    TMP DP  RH WIND       PRES   REMARKS
SEATTLE        PTCLDY    70  56  61 N6        29.92F
CALGARY        CLEAR     64  37  36 S5        30.21S



USA.gov is the U.S. government's official web portal to all federal, state and local government web resources and services.